Portada
METAR-TAF:

METAR-TAF

Aeropuertos :

Aeropuerto Yariguíes

Barrancabermeja, Colombia

latitud: 07-01N, longitud: 073-48W, altitud: 126 m

Observación

El informe se hizo hace 55 minutos, a las 19:00 UTC
Viento 4 kt del sur-suroeste
Temperatura 33°C
Humedad 56%
Presión 1010 hPa
Visibilidad 10 km o más
Nubes dispersas a una altura de 1500 ft

METAR: SKEJ 211900Z 21004KT 9999 SCT015 33/23 A2982

Hora: 14:55 (19:55 UTC)


TAF: falta

Observaciones y pronósticos meteorológicos de más de 4000 aeropuertos (mensajes METAR y TAF).

Los puntos amarillos y rojos representan las estaciones disponibles.

Ponga el ratón en el punto deseado para ver el nombre de la estación.

Haga clic para ver las observaciones y los pronósticos meteorológicos.

Para cambiar el mapa : haga clic en los botones verdes con una cruz de color negro para hacer un zoom, en el botón verde con un guión para alejar o en las flechas verdes para mapas adyacentes.


METAR-TAF: